EW5742 Weather Reports


Display with metric or nautical units.
time (UTC)temp
F
wind
direction
speed
MPH
gust
MPH
rain 1hr
in
rain 24hr
in
rain mn
in
humidity
%
barometer
mb
20260904170011 90 158 3.0 8.0 0.00 0.00 0.00 73 1015.5
20260904164505 90 148 5.0 9.0 0.00 0.00 0.00 74 1015.6
20260904163003 90 202 2.0 7.0 0.00 0.00 0.00 74 1015.7
20260904161502 90 136 1.0 9.0 0.00 0.00 0.00 74 1016.0
20260904160105 90 139 1.0 7.0 0.00 0.00 0.00 75 1016.1
20260904154542 90 136 1.0 6.0 0.00 0.00 0.00 73 1016.2
20260904153027 90 353 2.0 6.0 0.00 0.00 0.00 74 1016.2
20260904151606 89 297 0.0 2.0 0.00 0.00 0.00 74 1016.3
20260904150054 89 212 0.0 3.0 0.00 0.00 0.00 75 1016.2
20260904144546 89 140 2.0 5.0 0.00 0.00 0.00 74 1016.3
20260904143049 88 360 0.0 3.0 0.00 0.00 0.00 77 1016.2
20260904141543 86 127 0.0 3.0 0.00 0.00 0.00 79 1016.2
20260904140047 86 273 1.0 4.0 0.00 0.00 0.00 79 1016.1
20260904134534 87 105 1.0 7.0 0.00 0.00 0.00 80 1016.1
20260904133034 86 267 0.0 4.0 0.00 0.00 0.00 83 1016.0
20260904131531 85 98 0.0 3.0 0.00 0.00 0.00 86 1016.1
20260904130023 84 277 0.0 2.0 0.00 0.00 0.00 87 1016.0
20260904124601 83 23 0.0 2.0 0.00 0.00 0.00 88 1015.9
20260904123048 81 275 0.0 1.0 0.00 0.00 0.00 92 1015.9
20260904121515 80 335 0.0 1.0 0.00 0.00 0.00 94 1015.8
20260904120008 78 84 0.0 1.0 0.00 0.00 0.00 95 1016.0
20260904114508 77 84 0.0 0.0 0.00 0.00 0.00 95 1016.0
20260904113110 75 84 0.0 0.0 0.00 0.00 0.00 96 1015.9
20260904111511 74 84 0.0 0.0 0.00 0.00 0.00 95 1015.8
20260904110005 74 84 0.0 0.0 0.00 0.00 0.00 95 1015.8
20260904104501 74 84 0.0 0.0 0.00 0.00 0.00 95 1015.7
20260904103009 74 84 0.0 0.0 0.00 0.00 0.00 95 1015.5
20260904101547 74 84 0.0 0.0 0.00 0.00 0.00 95 1015.4
20260904100033 74 84 0.0 0.0 0.00 0.00 0.00 95 1015.3
20260904094532 74 84 0.0 0.0 0.00 0.00 0.00 95 1015.3
20260904093021 75 84 0.0 0.0 0.00 0.00 0.00 95 1015.3
20260904091523 75 84 0.0 0.0 0.00 0.00 0.00 95 1015.4
20260904090019 75 84 0.0 0.0 0.00 0.00 0.00 94 1015.4
20260904084511 75 84 0.0 0.0 0.00 0.00 0.00 94 1015.5
20260904083016 75 84 0.0 0.0 0.00 0.00 0.00 95 1015.5
20260904081510 76 84 0.0 0.0 0.00 0.00 0.00 95 1015.4
20260904080009 76 84 0.0 0.0 0.00 0.00 0.00 94 1015.5
20260904074544 76 84 0.0 0.0 0.00 0.00 0.00 95 1015.5
20260904073035 76 84 0.0 0.0 0.00 0.00 0.00 94 1015.5
20260904071504 76 84 0.0 0.0 0.00 0.00 0.00 94 1015.6
20260904070015 77 84 0.0 0.0 0.00 0.00 0.00 94 1015.6
20260904064507 77 84 0.0 0.0 0.00 0.00 0.00 94 1015.6
20260904063058 77 84 0.0 0.0 0.00 0.00 0.00 94 1015.7
20260904061557 77 84 0.0 1.0 0.00 0.00 0.00 94 1015.7
20260904060058 77 149 0.0 0.0 0.00 0.00 0.00 94 1015.8
20260904054557 77 153 0.0 0.0 0.00 0.00 0.00 94 1016.0
20260904053028 77 148 0.0 0.0 0.00 0.00 0.00 93 1016.1
20260904051528 77 147 0.0 0.0 0.00 0.00 0.00 93 1016.3
20260904050015 77 214 0.0 1.0 0.00 0.00 0.00 93 1016.5
20260904044515 77 215 0.0 1.0 0.00 0.00 0.00 93 1016.6
20260904043014 77 145 0.0 0.0 0.00 0.00 0.00 93 1016.7
20260904041513 77 145 0.0 0.0 0.00 0.00 0.00 93 1016.7
20260904040043 77 145 0.0 0.0 0.00 0.00 0.00 93 1016.9
20260904034542 77 145 0.0 0.0 0.00 0.00 0.00 92 1017.0
20260904033015 78 145 0.0 0.0 0.00 0.00 0.00 92 1017.0
20260904031513 78 145 0.0 0.0 0.00 0.00 0.00 92 1016.9
20260904030003 78 145 0.0 0.0 0.00 0.00 0.00 91 1016.8
20260904024505 79 145 0.0 0.0 0.00 0.00 0.00 91 1016.8
20260904023102 79 145 0.0 0.0 0.00 0.00 0.00 90 1016.8
20260904021504 79 160 0.0 1.0 0.00 0.00 0.00 90 1017.0
20260904020031 79 145 0.0 2.0 0.00 0.00 0.00 89 1017.0
20260904014536 80 129 0.0 1.0 0.00 0.00 0.00 89 1016.9
20260904013112 80 138 0.0 1.0 0.00 0.00 0.00 89 1016.7
20260904013007 80 121 0.0 1.0 0.00 0.00 0.00 89 1016.6
20260904011559 80 115 0.0 2.0 0.00 0.00 0.00 88 1016.4
20260904010051 80 176 0.0 2.0 0.00 0.00 0.00 88 1016.4
20260904004552 81 152 0.0 2.0 0.00 0.00 0.00 88 1016.2
20260904003050 81 142 0.0 3.0 0.00 0.00 0.00 87 1016.0
20260904001603 81 168 0.0 2.0 0.00 0.00 0.00 87 1015.6
20260904000018 81 131 0.0 1.0 0.00 0.00 0.00 86 1015.5
20260903234516 82 50 0.0 2.0 0.00 0.00 0.00 86 1015.5
20260903233011 82 155 1.0 5.0 0.00 0.00 0.00 85 1015.5
20260903231511 83 147 1.0 6.0 0.00 0.00 0.00 84 1015.7
20260903230010 83 209 1.0 5.0 0.00 0.00 0.00 84 1015.6
20260903224521 84 157 1.0 5.0 0.00 0.00 0.00 83 1015.7
20260903223004 84 283 0.0 7.0 0.00 0.00 0.00 82 1015.8
20260903221504 85 141 1.0 7.0 0.00 0.00 0.00 81 1015.9
20260903220115 85 156 2.0 7.0 0.00 0.00 0.00 80 1015.8
20260903220001 85 131 2.0 7.0 0.00 0.00 0.00 80 1015.8
20260903214504 86 192 3.0 7.0 0.00 0.00 0.00 77 1015.8
20260903213032 87 197 4.0 10.0 0.00 0.00 0.00 77 1015.8
20260903211529 87 124 5.0 10.0 0.00 0.00 0.00 77 1015.7
20260903210026 87 133 4.0 10.0 0.00 0.00 0.00 75 1015.6
20260903204522 87 145 5.0 9.0 0.00 0.00 0.00 76 1015.7
20260903203019 88 153 4.0 11.0 0.00 0.00 0.00 75 1015.8
20260903201524 88 185 2.0 8.0 0.00 0.00 0.00 74 1016.1
20260903200015 88 162 4.0 12.0 0.00 0.00 0.00 72 1016.1
20260903194526 89 146 6.0 10.0 0.00 0.00 0.00 70 1016.1
20260903193012 89 149 3.0 9.0 0.00 0.00 0.00 68 1016.5
20260903191513 89 69 2.0 9.0 0.00 0.00 0.00 71 1016.6
20260903190007 89 198 4.0 10.0 0.00 0.00 0.00 70 1016.7
20260903184509 90 86 6.0 10.0 0.00 0.00 0.00 68 1016.8
20260903183005 89 141 4.0 13.0 0.00 0.00 0.00 68 1017.0
20260903181504 89 229 2.0 10.0 0.00 0.00 0.00 69 1017.1
20260903180003 90 164 3.0 9.0 0.00 0.00 0.00 68 1017.1
20260903174601 90 149 3.0 8.0 0.00 0.00 0.00 66 1017.2
20260903174505 90 147 2.0 8.0 0.00 0.00 0.00 66 1017.2
20260903173100 90 116 4.0 8.0 0.00 0.00 0.00 68 1017.3
20260903171603 91 181 0.0 5.0 0.00 0.00 0.00 69 1017.3